Time,TemperatureF,DewpointF,PressureIn,WindDirection,WindDirectionDegrees,WindSpeedMPH,WindSpeedGustMPH,Humidity,HourlyPrecipIn,Conditions,Clouds,dailyrainin,SoftwareType,DateUTC
2013-02-23 00:00:00,35.1,34.1,30.12,NE,49,0.0,0.0,96,0.00,,---,0.00,VWS V14.01,2013-02-23 05:00:00,
2013-02-23 00:05:00,35.1,34.1,30.11,NE,34,0.0,0.0,96,0.00,,---,0.00,VWS V14.01,2013-02-23 05:05:00,
2013-02-23 00:10:00,35.2,34.2,30.12,NNE,33,0.0,0.0,96,0.00,,---,0.00,VWS V14.01,2013-02-23 05:10:00,
2013-02-23 00:15:00,35.2,34.2,30.11,NE,56,0.0,0.0,96,0.00,,---,0.00,VWS V14.01,2013-02-23 05:15:00,
2013-02-23 00:20:00,35.1,34.1,30.11,East,99,0.0,0.0,96,0.00,,---,0.00,VWS V14.01,2013-02-23 05:20:00,
2013-02-23 00:25:00,35.2,34.2,30.11,ENE,65,1.0,4.0,96,0.00,,---,0.00,VWS V14.01,2013-02-23 05:25:00,
2013-02-23 00:30:00,35.2,34.2,30.10,ENE,77,0.0,2.0,96,0.00,,---,0.00,VWS V14.01,2013-02-23 05:30:00,
2013-02-23 00:35:00,35.1,34.1,30.10,ENE,74,1.0,2.0,96,0.00,,---,0.00,VWS V14.01,2013-02-23 05:35:00,
2013-02-23 00:40:00,35.2,34.2,30.10,ENE,75,0.0,2.0,96,0.00,,---,0.00,VWS V14.01,2013-02-23 05:40:00,
2013-02-23 00:45:00,35.2,34.2,30.11,NNW,341,0.0,2.0,96,0.00,,---,0.00,VWS V14.01,2013-02-23 05:45:00,
2013-02-23 00:51:00,35.2,34.2,30.11,NW,319,1.0,2.0,96,0.00,,---,0.00,VWS V14.01,2013-02-23 05:51:00,
2013-02-23 00:56:00,35.3,34.3,30.11,NNW,341,3.0,3.0,96,0.00,,---,0.00,VWS V14.01,2013-02-23 05:56:00,
2013-02-23 01:01:00,35.3,34.3,30.11,North,355,1.0,3.0,96,0.00,,---,0.00,VWS V14.01,2013-02-23 06:01:00,
2013-02-23 01:06:00,35.3,34.3,30.11,ENE,63,0.0,3.0,96,0.01,,---,0.01,VWS V14.01,2013-02-23 06:06:00,
2013-02-23 01:11:00,35.2,34.2,30.10,ENE,57,0.0,3.0,96,0.01,,---,0.01,VWS V14.01,2013-02-23 06:11:00,
2013-02-23 01:16:00,35.3,34.3,30.10,NE,39,0.0,3.0,96,0.01,,---,0.01,VWS V14.01,2013-02-23 06:16:00,
2013-02-23 01:21:00,35.3,34.3,30.10,NE,35,1.0,3.0,96,0.01,,---,0.01,VWS V14.01,2013-02-23 06:21:00,
2013-02-23 01:26:00,35.3,34.3,30.10,NE,35,1.0,1.0,96,0.01,,---,0.01,VWS V14.01,2013-02-23 06:26:00,
2013-02-23 01:31:00,35.3,34.3,30.09,NNE,19,2.0,2.0,96,0.01,,---,0.01,VWS V14.01,2013-02-23 06:31:00,
2013-02-23 01:36:00,35.3,34.3,30.10,NNW,329,0.0,2.0,96,0.01,,---,0.01,VWS V14.01,2013-02-23 06:36:00,
2013-02-23 01:41:00,35.3,34.3,30.09,NE,53,0.0,4.0,96,0.01,,---,0.01,VWS V14.01,2013-02-23 06:41:00,
2013-02-23 01:46:00,35.3,34.3,30.10,NNW,341,0.0,4.0,96,0.01,,---,0.01,VWS V14.01,2013-02-23 06:46:00,
2013-02-23 01:51:00,35.3,34.3,30.11,NE,34,3.0,4.0,96,0.01,,---,0.01,VWS V14.01,2013-02-23 06:51:00,
2013-02-23 01:56:00,35.4,34.4,30.10,North,5,4.0,4.0,96,0.01,,---,0.01,VWS V14.01,2013-02-23 06:56:00,
2013-02-23 02:01:00,35.4,34.4,30.10,NE,52,0.0,4.0,96,0.01,,---,0.01,VWS V14.01,2013-02-23 07:01:00,
2013-02-23 02:06:00,35.4,34.4,30.11,NNE,30,4.0,5.0,96,0.01,,---,0.01,VWS V14.01,2013-02-23 07:06:00,
2013-02-23 02:11:00,35.4,34.4,30.10,ENE,65,0.0,7.0,96,0.01,,---,0.01,VWS V14.01,2013-02-23 07:11:00,
2013-02-23 02:16:00,35.5,34.5,30.10,NNE,24,4.0,7.0,96,0.01,,---,0.01,VWS V14.01,2013-02-23 07:16:00,
2013-02-23 02:21:00,35.5,34.5,30.09,NNE,21,5.0,7.0,96,0.01,,---,0.01,VWS V14.01,2013-02-23 07:21:00,
2013-02-23 02:26:00,35.5,34.5,30.09,NE,50,2.0,2.0,96,0.00,,---,0.01,VWS V14.01,2013-02-23 07:26:00,
2013-02-23 02:31:00,35.5,34.5,30.08,ENE,71,4.0,4.0,96,0.00,,---,0.01,VWS V14.01,2013-02-23 07:31:00,
2013-02-23 02:36:00,35.5,34.5,30.05,NNE,22,3.0,6.0,96,0.00,,---,0.01,VWS V14.01,2013-02-23 07:36:00,
2013-02-23 02:41:00,35.5,34.5,30.08,SW,216,4.0,6.0,96,0.00,,---,0.01,VWS V14.01,2013-02-23 07:41:00,
2013-02-23 02:46:00,35.6,34.6,30.08,SW,218,0.0,6.0,96,0.00,,---,0.01,VWS V14.01,2013-02-23 07:46:00,
2013-02-23 02:51:00,35.6,34.6,30.08,North,11,1.0,6.0,96,0.00,,---,0.01,VWS V14.01,2013-02-23 07:51:00,
2013-02-23 02:56:00,35.6,34.6,30.06,NW,305,1.0,2.0,96,0.00,,---,0.01,VWS V14.01,2013-02-23 07:56:00,
2013-02-23 03:01:00,35.6,34.6,30.06,NE,35,3.0,4.0,96,0.00,,---,0.01,VWS V14.01,2013-02-23 08:01:00,
2013-02-23 03:06:00,35.6,34.6,30.06,NE,54,0.0,4.0,96,0.00,,---,0.01,VWS V14.01,2013-02-23 08:06:00,
2013-02-23 03:11:00,35.6,34.6,30.04,NE,54,0.0,4.0,96,0.00,,---,0.01,VWS V14.01,2013-02-23 08:11:00,
2013-02-23 03:16:00,35.7,34.7,30.04,NE,46,1.0,4.0,96,0.00,,---,0.01,VWS V14.01,2013-02-23 08:16:00,
2013-02-23 03:21:00,35.6,34.6,30.03,NNE,30,1.0,4.0,96,0.00,,---,0.01,VWS V14.01,2013-02-23 08:21:00,
2013-02-23 03:26:00,35.6,34.6,30.03,NE,44,1.0,2.0,96,0.00,,---,0.01,VWS V14.01,2013-02-23 08:26:00,
2013-02-23 03:31:00,35.6,34.6,30.03,West,269,1.0,4.0,96,0.00,,---,0.01,VWS V14.01,2013-02-23 08:31:00,
2013-02-23 03:36:00,35.6,34.6,30.02,ENE,59,1.0,4.0,96,0.00,,---,0.01,VWS V14.01,2013-02-23 08:36:00,
2013-02-23 03:42:00,35.6,34.6,30.01,NNW,345,0.0,4.0,96,0.00,,---,0.01,VWS V14.01,2013-02-23 08:42:00,
2013-02-23 03:47:00,35.6,34.6,30.01,ENE,62,0.0,4.0,96,0.00,,---,0.01,VWS V14.01,2013-02-23 08:47:00,
2013-02-23 03:52:00,35.6,34.6,30.02,SE,136,0.0,4.0,96,0.00,,---,0.01,VWS V14.01,2013-02-23 08:52:00,
2013-02-23 03:57:00,35.7,34.7,30.00,East,82,0.0,0.0,96,0.00,,---,0.01,VWS V14.01,2013-02-23 08:57:00,
2013-02-23 04:02:00,35.7,34.7,30.00,East,82,0.0,0.0,96,0.00,,---,0.01,VWS V14.01,2013-02-23 09:02:00,
2013-02-23 04:07:00,35.7,34.7,30.00,NNW,329,0.0,1.0,96,0.00,,---,0.01,VWS V14.01,2013-02-23 09:07:00,
2013-02-23 04:12:00,35.8,34.8,30.00,NNE,30,0.0,1.0,96,0.00,,---,0.01,VWS V14.01,2013-02-23 09:12:00,
2013-02-23 04:17:00,35.9,34.9,30.03,WSW,256,1.0,2.0,96,0.00,,---,0.01,VWS V14.01,2013-02-23 09:17:00,
2013-02-23 04:22:00,35.9,34.9,30.03,West,259,1.0,2.0,96,0.00,,---,0.01,VWS V14.01,2013-02-23 09:22:00,
2013-02-23 04:27:00,35.9,34.9,30.02,NNE,22,0.0,3.0,96,0.00,,---,0.01,VWS V14.01,2013-02-23 09:27:00,
2013-02-23 04:32:00,36.0,35.0,30.03,NNE,22,4.0,4.0,96,0.00,,---,0.01,VWS V14.01,2013-02-23 09:32:00,
2013-02-23 04:37:00,36.0,35.0,30.03,NE,46,1.0,4.0,96,0.00,,---,0.01,VWS V14.01,2013-02-23 09:37:00,
2013-02-23 04:42:00,36.0,35.0,30.04,NE,49,2.0,4.0,96,0.00,,---,0.01,VWS V14.01,2013-02-23 09:42:00,
2013-02-23 04:47:00,36.0,35.0,30.04,NNW,333,2.0,5.0,96,0.01,,---,0.02,VWS V14.01,2013-02-23 09:47:00,
2013-02-23 04:52:00,35.9,34.9,30.04,NNE,28,1.0,5.0,96,0.01,,---,0.02,VWS V14.01,2013-02-23 09:52:00,
2013-02-23 04:57:00,35.9,34.9,30.03,NNW,344,4.0,6.0,96,0.01,,---,0.02,VWS V14.01,2013-02-23 09:57:00,
2013-02-23 05:02:00,35.9,34.9,30.03,NNE,20,1.0,6.0,96,0.01,,---,0.02,VWS V14.01,2013-02-23 10:02:00,
2013-02-23 05:07:00,35.9,34.9,30.03,NNE,12,4.0,6.0,96,0.01,,---,0.02,VWS V14.01,2013-02-23 10:07:00,
2013-02-23 05:12:00,35.9,34.9,30.03,NW,326,2.0,6.0,96,0.02,,---,0.03,VWS V14.01,2013-02-23 10:12:00,
2013-02-23 05:17:00,35.9,34.9,30.03,NW,322,1.0,6.0,96,0.02,,---,0.03,VWS V14.01,2013-02-23 10:17:00,
2013-02-23 05:22:00,35.9,34.9,30.02,NE,49,1.0,6.0,96,0.02,,---,0.03,VWS V14.01,2013-02-23 10:22:00,
2013-02-23 05:27:00,35.9,34.9,30.03,NE,53,2.0,2.0,96,0.03,,---,0.04,VWS V14.01,2013-02-23 10:27:00,
2013-02-23 05:32:00,35.9,34.9,30.04,NNW,340,0.0,4.0,96,0.04,,---,0.05,VWS V14.01,2013-02-23 10:32:00,
2013-02-23 05:37:00,35.9,34.9,30.03,NNE,20,4.0,5.0,96,0.05,,---,0.06,VWS V14.01,2013-02-23 10:37:00,
2013-02-23 05:42:00,35.9,34.9,30.03,NE,35,2.0,6.0,96,0.06,,---,0.07,VWS V14.01,2013-02-23 10:42:00,
2013-02-23 05:47:00,35.9,34.9,30.03,NE,47,0.0,7.0,96,0.06,,---,0.07,VWS V14.01,2013-02-23 10:47:00,
2013-02-23 05:52:00,35.9,34.9,30.03,ENE,70,2.0,7.0,96,0.07,,---,0.08,VWS V14.01,2013-02-23 10:52:00,
2013-02-23 05:57:00,36.0,35.0,30.03,NW,318,2.0,4.0,96,0.07,,---,0.09,VWS V14.01,2013-02-23 10:57:00,
2013-02-23 06:02:00,36.0,35.0,30.03,ENE,71,1.0,7.0,96,0.07,,---,0.09,VWS V14.01,2013-02-23 11:02:00,
2013-02-23 06:07:00,36.0,35.0,30.04,NNW,338,1.0,7.0,96,0.08,,---,0.10,VWS V14.01,2013-02-23 11:07:00,
2013-02-23 06:12:00,36.1,35.1,30.05,North,11,1.0,7.0,96,0.08,,---,0.10,VWS V14.01,2013-02-23 11:12:00,
2013-02-23 06:17:00,36.1,35.1,30.04,NNE,12,4.0,7.0,96,0.09,,---,0.11,VWS V14.01,2013-02-23 11:17:00,
2013-02-23 06:22:00,36.1,35.1,30.03,ENE,67,1.0,7.0,96,0.10,,---,0.12,VWS V14.01,2013-02-23 11:22:00,
2013-02-23 06:27:00,36.1,35.1,30.02,NNE,30,3.0,4.0,96,0.09,,---,0.13,VWS V14.01,2013-02-23 11:27:00,
2013-02-23 06:32:00,36.0,35.0,30.02,East,86,3.0,4.0,96,0.10,,---,0.14,VWS V14.01,2013-02-23 11:32:00,
2013-02-23 06:38:00,36.0,35.0,30.02,ENE,70,0.0,4.0,96,0.11,,---,0.15,VWS V14.01,2013-02-23 11:38:00,
2013-02-23 06:43:00,36.0,35.0,30.02,NE,36,1.0,4.0,96,0.12,,---,0.16,VWS V14.01,2013-02-23 11:43:00,
2013-02-23 06:48:00,36.0,35.0,30.02,NW,320,3.0,4.0,96,0.13,,---,0.17,VWS V14.01,2013-02-23 11:48:00,
2013-02-23 06:53:00,36.0,35.0,30.03,NNW,343,0.0,4.0,96,0.14,,---,0.18,VWS V14.01,2013-02-23 11:53:00,
2013-02-23 06:58:00,35.9,34.9,30.03,NE,42,1.0,1.0,96,0.11,,---,0.19,VWS V14.01,2013-02-23 11:58:00,
2013-02-23 07:03:00,36.0,35.0,30.01,ENE,63,2.0,2.0,96,0.12,,---,0.20,VWS V14.01,2013-02-23 12:03:00,
2013-02-23 07:08:00,35.9,34.9,30.00,NNE,30,1.0,2.0,96,0.13,,---,0.21,VWS V14.01,2013-02-23 12:08:00,
2013-02-23 07:13:00,35.9,34.9,29.99,NE,54,2.0,3.0,96,0.13,,---,0.21,VWS V14.01,2013-02-23 12:13:00,
2013-02-23 07:18:00,35.8,34.8,29.98,NE,35,2.0,3.0,96,0.14,,---,0.22,VWS V14.01,2013-02-23 12:18:00,
2013-02-23 07:23:00,35.9,34.9,29.99,NE,52,1.0,4.0,96,0.14,,---,0.22,VWS V14.01,2013-02-23 12:23:00,
2013-02-23 07:28:00,35.9,34.9,29.99,NNE,24,1.0,4.0,96,0.10,,---,0.23,VWS V14.01,2013-02-23 12:28:00,
2013-02-23 07:33:00,35.9,34.9,29.98,NNW,332,1.0,5.0,96,0.10,,---,0.23,VWS V14.01,2013-02-23 12:33:00,
2013-02-23 07:38:00,35.9,34.9,29.99,NNW,348,0.0,5.0,96,0.10,,---,0.23,VWS V14.01,2013-02-23 12:38:00,
2013-02-23 07:43:00,35.9,34.9,29.98,East,99,0.0,5.0,96,0.10,,---,0.23,VWS V14.01,2013-02-23 12:43:00,
2013-02-23 07:48:00,36.0,35.0,29.97,ENE,63,0.0,5.0,96,0.10,,---,0.23,VWS V14.01,2013-02-23 12:48:00,
2013-02-23 07:53:00,36.0,35.0,29.97,ENE,63,0.0,5.0,96,0.10,,---,0.23,VWS V14.01,2013-02-23 12:53:00,
2013-02-23 07:58:00,36.0,35.0,29.98,NE,42,0.0,1.0,96,0.05,,---,0.23,VWS V14.01,2013-02-23 12:58:00,
2013-02-23 08:03:00,36.1,35.1,29.97,ENE,67,0.0,1.0,96,0.05,,---,0.23,VWS V14.01,2013-02-23 13:03:00,
2013-02-23 08:08:00,36.1,35.1,29.97,NE,46,0.0,1.0,96,0.06,,---,0.24,VWS V14.01,2013-02-23 13:08:00,
2013-02-23 08:13:00,36.1,35.1,29.98,NNE,27,0.0,1.0,96,0.06,,---,0.24,VWS V14.01,2013-02-23 13:13:00,
2013-02-23 08:18:00,36.2,35.2,29.98,NNE,20,0.0,1.0,96,0.07,,---,0.25,VWS V14.01,2013-02-23 13:18:00,
2013-02-23 08:23:00,36.2,35.2,29.98,NNE,22,0.0,1.0,96,0.08,,---,0.26,VWS V14.01,2013-02-23 13:23:00,
2013-02-23 08:28:00,36.3,35.3,29.98,SE,129,0.0,0.0,96,0.04,,---,0.26,VWS V14.01,2013-02-23 13:28:00,
2013-02-23 08:33:00,36.3,35.3,29.98,NNW,332,0.0,0.0,96,0.05,,---,0.27,VWS V14.01,2013-02-23 13:33:00,
2013-02-23 08:38:00,36.4,35.4,29.98,NNE,15,0.0,0.0,96,0.06,,---,0.28,VWS V14.01,2013-02-23 13:38:00,
2013-02-23 08:43:00,36.4,35.4,29.98,NNE,21,1.0,1.0,96,0.07,,---,0.29,VWS V14.01,2013-02-23 13:43:00,
2013-02-23 08:48:00,36.4,35.4,29.98,NNE,28,1.0,1.0,96,0.09,,---,0.31,VWS V14.01,2013-02-23 13:48:00,
2013-02-23 08:53:00,36.5,35.5,29.98,NNW,329,1.0,2.0,96,0.10,,---,0.32,VWS V14.01,2013-02-23 13:53:00,
2013-02-23 08:58:00,36.5,35.5,29.98,NNW,338,1.0,3.0,96,0.10,,---,0.33,VWS V14.01,2013-02-23 13:58:00,
2013-02-23 09:03:00,36.5,35.5,29.98,NNW,341,2.0,4.0,96,0.11,,---,0.34,VWS V14.01,2013-02-23 14:03:00,
2013-02-23 09:08:00,36.5,35.5,29.99,WNW,303,1.0,4.0,96,0.12,,---,0.35,VWS V14.01,2013-02-23 14:08:00,
2013-02-23 09:13:00,36.5,35.5,29.98,NNE,19,1.0,5.0,96,0.13,,---,0.36,VWS V14.01,2013-02-23 14:13:00,
2013-02-23 09:18:00,36.5,35.5,29.97,NE,38,1.0,5.0,96,0.14,,---,0.37,VWS V14.01,2013-02-23 14:18:00,
2013-02-23 09:23:00,36.5,35.5,29.97,NNE,33,1.0,5.0,96,0.15,,---,0.38,VWS V14.01,2013-02-23 14:23:00,
2013-02-23 09:28:00,36.5,35.5,29.99,NW,314,0.0,1.0,96,0.13,,---,0.39,VWS V14.01,2013-02-23 14:28:00,
2013-02-23 09:33:00,36.6,35.6,29.99,NNW,329,4.0,4.0,96,0.14,,---,0.40,VWS V14.01,2013-02-23 14:33:00,
2013-02-23 09:38:00,36.6,35.6,29.99,WNW,296,0.0,4.0,96,0.14,,---,0.40,VWS V14.01,2013-02-23 14:38:00,
2013-02-23 09:43:00,36.7,35.7,29.98,WNW,296,0.0,4.0,96,0.14,,---,0.40,VWS V14.01,2013-02-23 14:43:00,
2013-02-23 09:48:00,36.9,35.9,29.98,WNW,296,0.0,4.0,96,0.14,,---,0.40,VWS V14.01,2013-02-23 14:48:00,
2013-02-23 09:53:00,36.9,35.9,29.97,WNW,296,0.0,4.0,96,0.14,,---,0.40,VWS V14.01,2013-02-23 14:53:00,
2013-02-23 09:58:00,37.0,36.0,29.97,WNW,296,0.0,0.0,96,0.07,,---,0.40,VWS V14.01,2013-02-23 14:58:00,
2013-02-23 10:03:00,37.1,36.1,29.97,WNW,296,0.0,0.0,96,0.07,,---,0.40,VWS V14.01,2013-02-23 15:03:00,
2013-02-23 10:08:00,37.2,36.2,29.98,WNW,296,1.0,1.0,96,0.07,,---,0.40,VWS V14.01,2013-02-23 15:08:00,
2013-02-23 10:13:00,37.1,36.1,29.97,ESE,104,1.0,2.0,96,0.07,,---,0.40,VWS V14.01,2013-02-23 15:13:00,
2013-02-23 10:18:00,37.2,36.2,29.97,NW,320,1.0,2.0,96,0.07,,---,0.40,VWS V14.01,2013-02-23 15:18:00,
2013-02-23 10:23:00,37.3,36.3,29.97,NW,307,0.0,2.0,96,0.07,,---,0.40,VWS V14.01,2013-02-23 15:23:00,
2013-02-23 10:28:00,37.3,36.3,29.96,NNE,27,0.0,2.0,96,0.03,,---,0.41,VWS V14.01,2013-02-23 15:28:00,
2013-02-23 10:33:00,37.4,36.4,29.96,ENE,71,0.0,2.0,96,0.03,,---,0.41,VWS V14.01,2013-02-23 15:33:00,
2013-02-23 10:38:00,37.4,36.4,29.96,ENE,71,0.0,2.0,96,0.03,,---,0.41,VWS V14.01,2013-02-23 15:38:00,
2013-02-23 10:43:00,37.5,36.5,29.96,ENE,71,0.0,2.0,96,0.03,,---,0.41,VWS V14.01,2013-02-23 15:43:00,
2013-02-23 10:48:00,37.6,36.6,29.96,NE,40,1.0,2.0,96,0.03,,---,0.41,VWS V14.01,2013-02-23 15:48:00,
2013-02-23 10:53:00,37.6,36.6,29.97,NE,39,0.0,2.0,96,0.04,,---,0.42,VWS V14.01,2013-02-23 15:53:00,
2013-02-23 10:58:00,37.7,36.7,29.96,NNE,12,1.0,1.0,96,0.04,,---,0.44,VWS V14.01,2013-02-23 15:58:00,
2013-02-23 11:03:00,37.8,36.8,29.96,NNW,341,1.0,2.0,96,0.05,,---,0.45,VWS V14.01,2013-02-23 16:03:00,
2013-02-23 11:08:00,37.8,36.8,29.97,NNW,333,1.0,2.0,96,0.07,,---,0.47,VWS V14.01,2013-02-23 16:08:00,
2013-02-23 11:13:00,37.9,36.9,29.97,North,360,0.0,2.0,96,0.08,,---,0.48,VWS V14.01,2013-02-23 16:13:00,
2013-02-23 11:18:00,38.1,37.1,29.95,NNW,329,1.0,2.0,96,0.09,,---,0.49,VWS V14.01,2013-02-23 16:18:00,
2013-02-23 11:23:00,38.1,37.1,29.95,NNE,28,3.0,3.0,96,0.10,,---,0.50,VWS V14.01,2013-02-23 16:23:00,
2013-02-23 11:28:00,38.3,37.3,29.95,NE,35,4.0,4.0,96,0.11,,---,0.51,VWS V14.01,2013-02-23 16:28:00,
2013-02-23 11:33:00,38.4,37.4,29.96,NNW,346,2.0,4.0,96,0.11,,---,0.51,VWS V14.01,2013-02-23 16:33:00,
2013-02-23 11:38:00,38.6,37.6,29.95,NNE,15,4.0,5.0,96,0.11,,---,0.51,VWS V14.01,2013-02-23 16:38:00,
2013-02-23 11:44:00,38.6,37.6,29.94,NE,37,1.0,5.0,96,0.12,,---,0.52,VWS V14.01,2013-02-23 16:44:00,
2013-02-23 11:48:00,38.8,37.8,29.94,NE,40,0.0,5.0,96,0.12,,---,0.52,VWS V14.01,2013-02-23 16:48:00,
2013-02-23 11:53:00,39.1,38.1,29.93,NE,35,1.0,5.0,96,0.12,,---,0.52,VWS V14.01,2013-02-23 16:53:00,
2013-02-23 11:59:00,39.3,38.3,29.93,West,263,0.0,1.0,96,0.09,,---,0.52,VWS V14.01,2013-02-23 16:59:00,
2013-02-23 12:04:00,39.5,38.5,29.94,North,351,2.0,2.0,96,0.09,,---,0.52,VWS V14.01,2013-02-23 17:04:00,
2013-02-23 12:09:00,39.5,38.5,29.94,North,11,2.0,3.0,96,0.09,,---,0.52,VWS V14.01,2013-02-23 17:09:00,
2013-02-23 12:14:00,39.3,38.3,29.94,NW,318,1.0,5.0,96,0.09,,---,0.52,VWS V14.01,2013-02-23 17:14:00,
2013-02-23 12:19:00,39.4,38.4,29.94,NNE,17,2.0,5.0,96,0.09,,---,0.52,VWS V14.01,2013-02-23 17:19:00,
2013-02-23 12:24:00,39.4,38.4,29.94,NNW,336,2.0,5.0,96,0.09,,---,0.52,VWS V14.01,2013-02-23 17:24:00,
2013-02-23 12:29:00,39.5,38.5,29.93,NW,315,1.0,5.0,96,0.01,,---,0.52,VWS V14.01,2013-02-23 17:29:00,
2013-02-23 12:34:00,39.5,38.5,29.93,NNW,331,2.0,5.0,96,0.01,,---,0.52,VWS V14.01,2013-02-23 17:34:00,
2013-02-23 12:39:00,39.6,38.6,29.93,North,350,3.0,5.0,96,0.01,,---,0.52,VWS V14.01,2013-02-23 17:39:00,
2013-02-23 12:44:00,39.7,38.7,29.92,NE,44,1.0,5.0,96,0.01,,---,0.52,VWS V14.01,2013-02-23 17:44:00,
2013-02-23 12:49:00,39.9,38.8,29.92,NNE,32,0.0,5.0,96,0.01,,---,0.52,VWS V14.01,2013-02-23 17:49:00,
2013-02-23 12:54:00,40.1,39.0,29.93,NNE,17,5.0,7.0,96,0.01,,---,0.52,VWS V14.01,2013-02-23 17:54:00,
2013-02-23 12:59:00,40.2,39.2,29.92,NW,323,1.0,4.0,96,0.00,,---,0.52,VWS V14.01,2013-02-23 17:59:00,
2013-02-23 13:04:00,40.3,39.2,29.93,NE,40,3.0,7.0,96,0.00,,---,0.52,VWS V14.01,2013-02-23 18:04:00,
2013-02-23 13:09:00,40.2,39.2,29.93,NNE,15,3.0,7.0,96,0.00,,---,0.52,VWS V14.01,2013-02-23 18:09:00,
2013-02-23 13:14:00,40.2,39.2,29.93,NE,46,5.0,7.0,96,0.00,,---,0.52,VWS V14.01,2013-02-23 18:14:00,
2013-02-23 13:19:00,40.2,39.2,29.93,NNW,332,2.0,7.0,96,0.00,,---,0.52,VWS V14.01,2013-02-23 18:19:00,
2013-02-23 13:24:00,40.1,39.0,29.93,NNW,343,0.0,7.0,96,0.00,,---,0.52,VWS V14.01,2013-02-23 18:24:00,
2013-02-23 13:29:00,40.1,39.0,29.93,NE,49,0.0,2.0,96,0.00,,---,0.52,VWS V14.01,2013-02-23 18:29:00,
2013-02-23 13:34:00,40.3,39.2,29.93,WNW,284,1.0,2.0,96,0.00,,---,0.52,VWS V14.01,2013-02-23 18:34:00,
2013-02-23 13:39:00,40.3,39.2,29.92,NE,46,2.0,2.0,96,0.00,,---,0.52,VWS V14.01,2013-02-23 18:39:00,
2013-02-23 13:44:00,40.3,39.2,29.92,NW,311,0.0,2.0,96,0.00,,---,0.52,VWS V14.01,2013-02-23 18:44:00,
2013-02-23 13:49:00,40.3,39.2,29.90,ESE,103,0.0,2.0,96,0.00,,---,0.52,VWS V14.01,2013-02-23 18:49:00,
2013-02-23 13:54:00,40.2,39.2,29.90,NNE,23,0.0,2.0,96,0.00,,---,0.52,VWS V14.01,2013-02-23 18:54:00,
2013-02-23 13:59:00,40.3,39.2,29.90,NNE,24,1.0,1.0,96,0.00,,---,0.52,VWS V14.01,2013-02-23 18:59:00,
2013-02-23 14:04:00,40.4,39.3,29.90,NE,46,0.0,2.0,96,0.00,,---,0.52,VWS V14.01,2013-02-23 19:04:00,
2013-02-23 14:09:00,40.5,39.5,29.91,NNW,343,1.0,2.0,96,0.00,,---,0.52,VWS V14.01,2013-02-23 19:09:00,
2013-02-23 14:14:00,40.5,39.5,29.90,NE,42,1.0,2.0,96,0.00,,---,0.52,VWS V14.01,2013-02-23 19:14:00,
2013-02-23 14:20:00,40.6,39.5,29.90,NW,326,3.0,3.0,96,0.00,,---,0.52,VWS V14.01,2013-02-23 19:20:00,
2013-02-23 14:25:00,40.6,39.5,29.90,NNW,333,2.0,3.0,96,0.00,,---,0.52,VWS V14.01,2013-02-23 19:25:00,
2013-02-23 14:30:00,40.7,39.7,29.91,West,276,0.0,2.0,96,0.00,,---,0.52,VWS V14.01,2013-02-23 19:30:00,
2013-02-23 14:35:00,40.8,39.8,29.91,NE,43,0.0,6.0,96,0.00,,---,0.52,VWS V14.01,2013-02-23 19:35:00,
2013-02-23 14:40:00,41.0,40.0,29.90,NW,309,1.0,6.0,96,0.00,,---,0.52,VWS V14.01,2013-02-23 19:40:00,
2013-02-23 14:45:00,41.1,40.0,29.90,North,11,1.0,6.0,96,0.00,,---,0.52,VWS V14.01,2013-02-23 19:45:00,
2013-02-23 14:50:00,41.1,40.0,29.90,North,11,2.0,6.0,96,0.00,,---,0.52,VWS V14.01,2013-02-23 19:50:00,
2013-02-23 14:55:00,41.1,40.0,29.90,NE,39,0.0,6.0,96,0.00,,---,0.52,VWS V14.01,2013-02-23 19:55:00,
2013-02-23 15:00:00,41.2,40.2,29.89,NNW,345,2.0,4.0,96,0.00,,---,0.52,VWS V14.01,2013-02-23 20:00:00,
2013-02-23 15:05:00,41.2,40.2,29.88,NNE,13,0.0,4.0,96,0.00,,---,0.52,VWS V14.01,2013-02-23 20:05:00,
2013-02-23 15:10:00,41.3,40.2,29.88,NNW,339,2.0,4.0,96,0.00,,---,0.52,VWS V14.01,2013-02-23 20:10:00,
2013-02-23 15:15:00,41.4,40.3,29.88,NNE,24,1.0,5.0,96,0.00,,---,0.52,VWS V14.01,2013-02-23 20:15:00,
2013-02-23 15:20:00,41.5,40.5,29.87,NNE,17,5.0,6.0,96,0.00,,---,0.52,VWS V14.01,2013-02-23 20:20:00,
2013-02-23 15:25:00,41.5,40.5,29.87,NNW,340,1.0,6.0,96,0.00,,---,0.52,VWS V14.01,2013-02-23 20:25:00,
2013-02-23 15:30:00,41.6,40.5,29.87,ENE,58,1.0,6.0,96,0.00,,---,0.52,VWS V14.01,2013-02-23 20:30:00,
2013-02-23 15:35:00,41.7,40.7,29.87,NNE,30,1.0,6.0,96,0.00,,---,0.52,VWS V14.01,2013-02-23 20:35:00,
2013-02-23 15:40:00,41.8,40.8,29.87,NNE,12,1.0,6.0,96,0.00,,---,0.52,VWS V14.01,2013-02-23 20:40:00,
2013-02-23 15:45:00,41.9,40.8,29.87,East,89,1.0,7.0,96,0.00,,---,0.52,VWS V14.01,2013-02-23 20:45:00,
2013-02-23 15:50:00,42.0,40.9,29.88,NW,317,4.0,7.0,96,0.00,,---,0.52,VWS V14.01,2013-02-23 20:50:00,
2013-02-23 15:55:00,42.0,40.9,29.87,NNW,336,3.0,7.0,96,0.00,,---,0.52,VWS V14.01,2013-02-23 20:55:00,
2013-02-23 16:00:00,42.0,40.9,29.88,NNW,337,2.0,5.0,96,0.00,,---,0.52,VWS V14.01,2013-02-23 21:00:00,
2013-02-23 16:05:00,42.0,40.9,29.87,NNW,344,1.0,5.0,96,0.00,,---,0.52,VWS V14.01,2013-02-23 21:05:00,
2013-02-23 16:10:00,42.1,41.0,29.87,NNE,16,2.0,5.0,96,0.00,,---,0.52,VWS V14.01,2013-02-23 21:10:00,
2013-02-23 16:15:00,42.0,40.9,29.87,NNE,17,2.0,5.0,96,0.00,,---,0.52,VWS V14.01,2013-02-23 21:15:00,
2013-02-23 16:20:00,42.1,41.0,29.87,NNW,337,2.0,5.0,96,0.00,,---,0.52,VWS V14.01,2013-02-23 21:20:00,
2013-02-23 16:25:00,42.1,41.0,29.87,North,351,0.0,5.0,96,0.00,,---,0.52,VWS V14.01,2013-02-23 21:25:00,
2013-02-23 16:30:00,42.2,40.9,29.87,NE,55,2.0,2.0,95,0.00,,---,0.52,VWS V14.01,2013-02-23 21:30:00,
2013-02-23 16:35:00,42.2,40.9,29.86,NE,36,0.0,2.0,95,0.00,,---,0.52,VWS V14.01,2013-02-23 21:35:00,
2013-02-23 16:40:00,42.3,41.2,29.87,NNE,19,0.0,2.0,96,0.00,,---,0.52,VWS V14.01,2013-02-23 21:40:00,
2013-02-23 16:45:00,42.4,41.3,29.88,NW,309,1.0,2.0,96,0.00,,---,0.52,VWS V14.01,2013-02-23 21:45:00,
2013-02-23 16:50:00,42.4,41.1,29.87,NNE,31,0.0,2.0,95,0.00,,---,0.52,VWS V14.01,2013-02-23 21:50:00,
2013-02-23 16:55:00,42.3,41.0,29.88,NW,318,1.0,2.0,95,0.00,,---,0.52,VWS V14.01,2013-02-23 21:55:00,
2013-02-23 17:01:00,42.3,41.0,29.88,NNW,336,0.0,1.0,95,0.00,,---,0.52,VWS V14.01,2013-02-23 22:01:00,
2013-02-23 17:06:00,42.4,41.1,29.87,NNW,337,0.0,1.0,95,0.00,,---,0.52,VWS V14.01,2013-02-23 22:06:00,
2013-02-23 17:11:00,42.4,41.3,29.88,NNW,345,0.0,1.0,96,0.00,,---,0.52,VWS V14.01,2013-02-23 22:11:00,
2013-02-23 17:16:00,42.4,41.1,29.87,NW,315,2.0,4.0,95,0.00,,---,0.52,VWS V14.01,2013-02-23 22:16:00,
2013-02-23 17:21:00,42.4,41.1,29.87,NW,310,0.0,4.0,95,0.00,,---,0.52,VWS V14.01,2013-02-23 22:21:00,
2013-02-23 17:26:00,42.4,41.1,29.86,NW,310,1.0,1.0,95,0.00,,---,0.52,VWS V14.01,2013-02-23 22:26:00,
2013-02-23 17:31:00,42.3,41.0,29.86,WNW,300,1.0,1.0,95,0.00,,---,0.52,VWS V14.01,2013-02-23 22:31:00,
2013-02-23 17:36:00,42.3,41.0,29.86,NNW,338,1.0,2.0,95,0.00,,---,0.52,VWS V14.01,2013-02-23 22:36:00,
2013-02-23 17:41:00,42.3,41.0,29.85,NNE,30,0.0,2.0,95,0.00,,---,0.52,VWS V14.01,2013-02-23 22:41:00,
2013-02-23 17:46:00,42.3,41.0,29.85,NNE,30,0.0,2.0,95,0.00,,---,0.52,VWS V14.01,2013-02-23 22:46:00,
2013-02-23 17:51:00,42.4,41.1,29.84,NNE,31,0.0,2.0,95,0.00,,---,0.52,VWS V14.01,2013-02-23 22:51:00,
2013-02-23 17:56:00,42.3,41.0,29.85,NNW,346,1.0,1.0,95,0.00,,---,0.52,VWS V14.01,2013-02-23 22:56:00,
2013-02-23 18:01:00,42.3,41.0,29.85,North,5,0.0,1.0,95,0.00,,---,0.52,VWS V14.01,2013-02-23 23:01:00,
2013-02-23 18:06:00,42.3,41.0,29.84,North,5,1.0,1.0,95,0.00,,---,0.52,VWS V14.01,2013-02-23 23:06:00,
2013-02-23 18:11:00,42.3,41.0,29.84,North,5,0.0,1.0,95,0.00,,---,0.52,VWS V14.01,2013-02-23 23:11:00,
2013-02-23 18:16:00,42.3,41.0,29.84,NNE,21,1.0,2.0,95,0.00,,---,0.52,VWS V14.01,2013-02-23 23:16:00,
2013-02-23 18:21:00,42.3,41.0,29.83,NNE,23,1.0,2.0,95,0.00,,---,0.52,VWS V14.01,2013-02-23 23:21:00,
2013-02-23 18:26:00,42.3,41.0,29.84,NNE,20,0.0,0.0,95,0.00,,---,0.52,VWS V14.01,2013-02-23 23:26:00,
2013-02-23 18:31:00,42.3,41.0,29.83,NNE,22,0.0,1.0,95,0.00,,---,0.52,VWS V14.01,2013-02-23 23:31:00,
2013-02-23 18:36:00,42.4,41.1,29.84,NNE,20,0.0,1.0,95,0.00,,---,0.52,VWS V14.01,2013-02-23 23:36:00,
2013-02-23 18:41:00,42.3,41.0,29.84,NNE,22,0.0,1.0,95,0.00,,---,0.52,VWS V14.01,2013-02-23 23:41:00,
2013-02-23 18:46:00,42.4,41.1,29.84,NNE,22,0.0,1.0,95,0.00,,---,0.52,VWS V14.01,2013-02-23 23:46:00,
2013-02-23 18:51:00,42.4,41.1,29.84,West,277,1.0,1.0,95,0.00,,---,0.52,VWS V14.01,2013-02-23 23:51:00,
2013-02-23 18:56:00,42.4,41.1,29.84,NE,43,0.0,0.0,95,0.00,,---,0.52,VWS V14.01,2013-02-23 23:56:00,
2013-02-23 19:01:00,42.4,41.1,29.84,NW,322,0.0,1.0,95,0.00,,---,0.52,VWS V14.01,2013-02-24 00:01:00,
2013-02-23 19:06:00,42.3,41.0,29.83,NNW,336,0.0,1.0,95,0.00,,---,0.52,VWS V14.01,2013-02-24 00:06:00,
2013-02-23 19:11:00,42.3,41.0,29.83,NNW,336,0.0,1.0,95,0.00,,---,0.52,VWS V14.01,2013-02-24 00:11:00,
2013-02-23 19:16:00,42.3,41.0,29.83,NNW,341,0.0,1.0,95,0.00,,---,0.52,VWS V14.01,2013-02-24 00:16:00,
2013-02-23 19:21:00,42.3,41.0,29.83,NNW,327,0.0,2.0,95,0.00,,---,0.52,VWS V14.01,2013-02-24 00:21:00,
2013-02-23 19:26:00,42.3,41.0,29.83,WNW,289,0.0,0.0,95,0.00,,---,0.52,VWS V14.01,2013-02-24 00:26:00,
2013-02-23 19:31:00,42.3,41.0,29.83,NE,38,1.0,1.0,95,0.00,,---,0.52,VWS V14.01,2013-02-24 00:31:00,
2013-02-23 19:36:00,42.3,41.0,29.83,NW,324,0.0,1.0,95,0.00,,---,0.52,VWS V14.01,2013-02-24 00:36:00,
2013-02-23 19:41:00,42.3,41.0,29.83,NW,326,0.0,1.0,95,0.00,,---,0.52,VWS V14.01,2013-02-24 00:41:00,
2013-02-23 19:46:00,42.3,41.0,29.83,NW,326,0.0,1.0,95,0.00,,---,0.52,VWS V14.01,2013-02-24 00:46:00,
2013-02-23 19:51:00,42.3,41.0,29.83,NW,326,0.0,1.0,95,0.00,,---,0.52,VWS V14.01,2013-02-24 00:51:00,
2013-02-23 19:56:00,42.3,41.0,29.83,NW,326,0.0,0.0,95,0.00,,---,0.52,VWS V14.01,2013-02-24 00:56:00,
2013-02-23 20:01:00,42.3,41.2,29.84,NW,326,0.0,0.0,96,0.00,,---,0.52,VWS V14.01,2013-02-24 01:01:00,
2013-02-23 20:06:00,42.2,41.1,29.84,NW,326,0.0,0.0,96,0.00,,---,0.52,VWS V14.01,2013-02-24 01:06:00,
2013-02-23 20:11:00,42.2,41.1,29.83,NW,326,0.0,1.0,96,0.00,,---,0.52,VWS V14.01,2013-02-24 01:11:00,
2013-02-23 20:16:00,42.2,41.1,29.84,NW,326,0.0,1.0,96,0.00,,---,0.52,VWS V14.01,2013-02-24 01:16:00,
2013-02-23 20:21:00,42.2,41.1,29.85,NW,326,1.0,1.0,96,0.00,,---,0.52,VWS V14.01,2013-02-24 01:21:00,
2013-02-23 20:26:00,42.1,41.0,29.85,NW,317,0.0,0.0,96,0.00,,---,0.52,VWS V14.01,2013-02-24 01:26:00,
2013-02-23 20:31:00,42.1,41.0,29.85,WNW,283,0.0,1.0,96,0.00,,---,0.52,VWS V14.01,2013-02-24 01:31:00,
2013-02-23 20:36:00,42.1,41.0,29.85,WNW,283,0.0,1.0,96,0.00,,---,0.52,VWS V14.01,2013-02-24 01:36:00,
2013-02-23 20:41:00,42.1,41.0,29.84,South,176,0.0,1.0,96,0.00,,---,0.52,VWS V14.01,2013-02-24 01:41:00,
2013-02-23 20:46:00,42.0,40.9,29.84,South,176,0.0,1.0,96,0.00,,---,0.52,VWS V14.01,2013-02-24 01:46:00,
2013-02-23 20:51:00,41.9,40.8,29.84,South,176,0.0,1.0,96,0.00,,---,0.52,VWS V14.01,2013-02-24 01:51:00,
2013-02-23 20:56:00,41.8,40.8,29.84,South,176,0.0,0.0,96,0.00,,---,0.52,VWS V14.01,2013-02-24 01:56:00,
2013-02-23 21:01:00,41.8,40.8,29.84,South,176,0.0,0.0,96,0.00,,---,0.52,VWS V14.01,2013-02-24 02:01:00,
2013-02-23 21:06:00,41.7,40.7,29.83,South,177,0.0,1.0,96,0.00,,---,0.52,VWS V14.01,2013-02-24 02:06:00,
2013-02-23 21:11:00,41.6,40.5,29.84,South,177,0.0,1.0,96,0.00,,---,0.52,VWS V14.01,2013-02-24 02:11:00,
2013-02-23 21:16:00,41.5,40.5,29.84,South,177,1.0,1.0,96,0.00,,---,0.52,VWS V14.01,2013-02-24 02:16:00,
2013-02-23 21:21:00,41.4,40.3,29.85,South,176,0.0,1.0,96,0.00,,---,0.52,VWS V14.01,2013-02-24 02:21:00,
2013-02-23 21:26:00,41.4,40.3,29.84,South,176,0.0,0.0,96,0.00,,---,0.52,VWS V14.01,2013-02-24 02:26:00,
2013-02-23 21:31:00,41.3,40.2,29.85,South,177,0.0,0.0,96,0.00,,---,0.52,VWS V14.01,2013-02-24 02:31:00,
2013-02-23 21:36:00,41.3,40.2,29.84,South,175,1.0,1.0,96,0.00,,---,0.52,VWS V14.01,2013-02-24 02:36:00,
2013-02-23 21:41:00,41.2,40.2,29.84,South,173,0.0,1.0,96,0.00,,---,0.52,VWS V14.01,2013-02-24 02:41:00,
2013-02-23 21:47:00,41.2,40.2,29.84,South,173,0.0,1.0,96,0.00,,---,0.52,VWS V14.01,2013-02-24 02:47:00,
2013-02-23 21:52:00,41.1,40.0,29.84,South,173,0.0,1.0,96,0.00,,---,0.52,VWS V14.01,2013-02-24 02:52:00,
2013-02-23 21:57:00,41.1,40.0,29.85,South,173,0.0,0.0,96,0.00,,---,0.52,VWS V14.01,2013-02-24 02:57:00,
2013-02-23 22:02:00,41.1,40.0,29.84,South,173,0.0,0.0,96,0.00,,---,0.52,VWS V14.01,2013-02-24 03:02:00,
2013-02-23 22:07:00,41.2,40.2,29.84,South,172,0.0,1.0,96,0.00,,---,0.52,VWS V14.01,2013-02-24 03:07:00,
2013-02-23 22:12:00,41.2,40.2,29.84,South,173,0.0,1.0,96,0.00,,---,0.52,VWS V14.01,2013-02-24 03:12:00,
2013-02-23 22:17:00,41.3,40.2,29.84,South,173,0.0,1.0,96,0.00,,---,0.52,VWS V14.01,2013-02-24 03:17:00,
2013-02-23 22:22:00,41.3,40.2,29.83,South,173,0.0,1.0,96,0.00,,---,0.52,VWS V14.01,2013-02-24 03:22:00,
2013-02-23 22:27:00,41.4,40.3,29.82,SE,136,1.0,1.0,96,0.00,,---,0.52,VWS V14.01,2013-02-24 03:27:00,
2013-02-23 22:32:00,41.4,40.3,29.82,SSE,161,0.0,2.0,96,0.00,,---,0.52,VWS V14.01,2013-02-24 03:32:00,
2013-02-23 22:37:00,41.5,40.5,29.81,SSE,168,2.0,2.0,96,0.00,,---,0.52,VWS V14.01,2013-02-24 03:37:00,
2013-02-23 22:42:00,41.5,40.5,29.81,SE,144,1.0,2.0,96,0.00,,---,0.52,VWS V14.01,2013-02-24 03:42:00,
2013-02-23 22:47:00,41.5,40.5,29.81,SE,144,0.0,2.0,96,0.00,,---,0.52,VWS V14.01,2013-02-24 03:47:00,
2013-02-23 22:52:00,41.5,40.5,29.81,SSE,168,0.0,2.0,96,0.00,,---,0.52,VWS V14.01,2013-02-24 03:52:00,
2013-02-23 22:57:00,41.5,40.5,29.81,SSE,168,1.0,1.0,96,0.00,,---,0.52,VWS V14.01,2013-02-24 03:57:00,
2013-02-23 23:02:00,41.5,40.5,29.81,SSE,167,0.0,1.0,96,0.00,,---,0.52,VWS V14.01,2013-02-24 04:02:00,
2013-02-23 23:07:00,41.5,40.5,29.83,West,276,0.0,1.0,96,0.00,,---,0.52,VWS V14.01,2013-02-24 04:07:00,
2013-02-23 23:12:00,41.5,40.5,29.82,West,276,0.0,1.0,96,0.00,,---,0.52,VWS V14.01,2013-02-24 04:12:00,
2013-02-23 23:17:00,41.6,40.5,29.83,West,276,1.0,1.0,96,0.00,,---,0.52,VWS V14.01,2013-02-24 04:17:00,
2013-02-23 23:22:00,41.6,40.5,29.83,NNW,327,1.0,2.0,96,0.00,,---,0.52,VWS V14.01,2013-02-24 04:22:00,
2013-02-23 23:27:00,41.7,40.7,29.83,NNE,28,1.0,1.0,96,0.00,,---,0.52,VWS V14.01,2013-02-24 04:27:00,
2013-02-23 23:32:00,41.7,40.7,29.83,NNE,24,2.0,2.0,96,0.00,,---,0.52,VWS V14.01,2013-02-24 04:32:00,
2013-02-23 23:37:00,41.8,40.8,29.83,NNE,24,1.0,2.0,96,0.00,,---,0.52,VWS V14.01,2013-02-24 04:37:00,
2013-02-23 23:42:00,41.9,40.8,29.83,WSW,242,0.0,2.0,96,0.00,,---,0.52,VWS V14.01,2013-02-24 04:42:00,
2013-02-23 23:47:00,41.9,40.8,29.83,WSW,242,0.0,2.0,96,0.00,,---,0.52,VWS V14.01,2013-02-24 04:47:00,
2013-02-23 23:52:00,41.9,40.8,29.82,WSW,248,0.0,2.0,96,0.00,,---,0.52,VWS V14.01,2013-02-24 04:52:00,
2013-02-23 23:57:00,42.0,40.9,29.82,WSW,248,0.0,0.0,96,0.00,,---,0.00,VWS V14.01,2013-02-24 04:57:00,